カタログに戻る

THOR ABLESTAR DEB

運用中LEO
NORAD 320·DEBRIS·🇺🇸 United States

打ち上げ Jun 29, 1961 から Cape Canaveral Space Force Station

Loading…

次のパス (今後24時間)

TLE

最新Source: Space-Track

元期: Sep 14, 2026, 05:25 UTC

1 00320U 61015CW  26257.22573306  .00000208  00000-0  10394-3 0  9998
2 00320  66.9053 174.9027 0137769 314.3890  44.5992 14.29637384381087

AllMySatでTHOR ABLESTAR DEBをリアルタイム追跡

Download on the App Store